Regional Weather Roundup
Issued by NWS

Home | Current Version | Previous Version | Graphics & Text | Print | Product List | Glossary On
Versions: 1 2 3 4 5 6 7 8 9 10 11 12 13 14 15 16 17 18 19 20 21 22 23 24 25 26 27 28 29 30 31 32 33 34 35 36 37 38 39 40 41 42 43 44 45 46 47 48 49 50
605
ASUS43 KOAX 051710
RWRNE

WEATHER ROUNDUP FOR NEBRASKA
NATIONAL WEATHER SERVICE OMAHA NE
1100 AM CST FRI FEB 05 2016

NOTES: SATELLITE DATA IS BEING USED TO AUGMENT CLOUD COVER ABOVE
       12000 FEET.
       "FAIR" INDICATES FEW OR NO CLOUDS BELOW 12,000 FEET WITH NO
       SIGNIFICANT WEATHER AND/OR OBSTRUCTIONS TO VISIBILITY.

  * THESE STATIONS DO NOT REPORT WEATHER SUCH AS RAIN...SNOW OR FOG.

NEZ001>004-019>022-054>056-051800-
NEBRASKA PANHANDLE

CITY           SKY/WX    TMP DP  RH WIND       PRES   REMARKS
SCOTTSBLUFF    SUNNY     26  14  60 NW10      30.31R WCI  16
ALLIANCE       MOSUNNY   28  20  71 W21       30.24R WCI  15
CHADRON        CLOUDY    32  23  69 W22G30    30.26R WCI  19
KIMBALL        SUNNY     26  15  64 W18       30.28S WCI  12
SIDNEY         SUNNY     25  16  68 NW17      30.28R WCI  12
$$

NEZ057>060-069>072-079>082-051800-
SOUTHWEST NEBRASKA

CITY           SKY/WX    TMP DP  RH WIND       PRES   REMARKS
NORTH PLATTE   SUNNY     30  21  69 NW15      30.25R WCI  19
IMPERIAL       SUNNY     29  18  63 W12       30.28R WCI  19
LEXINGTON      SUNNY     34  25  68 W14       30.24S WCI  25
MCCOOK         SUNNY     35  23  61 W18       30.28S WCI  24
OGALLALA       SUNNY     29  20  67 NW18      30.27R WCI  17
$$

NEZ005>010-023>029-035>040-094-051800-
NORTH CENTRAL NEBRASKA

CITY           SKY/WX    TMP DP  RH WIND       PRES   REMARKS
VALENTINE      CLOUDY    35  26  69 NW14G23   30.21R WCI  26
AINSWORTH      MOSUNNY   37  27  69 NW18G24   30.19R WCI  26
BROKEN BOW     SUNNY     34  24  67 NW7       30.21S WCI  28
O`NEILL        CLOUDY    35  28  73 W9        30.19R WCI  28
ORD            MOSUNNY   33  27  78 W7        30.21S WCI  27
THEDFORD       CLOUDY    36  27  69 NW13      30.22R WCI  27
$$

NEZ041-046>049-061>064-073>077-083>087-051800-
SOUTH CENTRAL NEBRASKA

CITY           SKY/WX    TMP DP  RH WIND       PRES   REMARKS
GRAND ISLAND   CLOUDY    31  27  85 SW17      30.25F WCI  19
AURORA         LGT SNOW  29  28  96 SW13      30.26F WCI  19
HASTINGS       LGT SNOW  29  26  89 SW10G21   30.26F FOG     WCI  20
HEBRON         LGT SNOW  28  25  91 SW7       30.32S WCI  20
HOLDREGE       CLOUDY    31  28  88 SW10      30.25S WCI  23
KEARNEY *      MOSUNNY   32 -17  11 SW13      30.25S WCI  22
YORK           PTSUNNY   27  25  93 SW12      30.28F FOG     WCI  16
$$

NEZ011>018-030>034-042>045-051800-
NORTHEAST NEBRASKA

CITY           SKY/WX    TMP DP  RH WIND       PRES   REMARKS
NORFOLK        CLOUDY    27  24  89 MISG      30.24R
ALBION         CLOUDY    27  23  87 S3        30.24S
BLAIR          LGT SNOW  27  23  86 S13       30.32S WCI  16
COLUMBUS *     CLOUDY    27  18  69 S14       30.28S WCI  15
FREMONT        LGT SNOW  26  22  87 S12       30.32F WCI  15
TEKAMAH        LGT SNOW  25  21  85 S14       30.34S FOG     WCI  13
WAYNE          CLOUDY    27  23  85 S14       30.26S WCI  16
$$

NEZ050>053-065>068-078-088>093-051800-
SOUTHEAST NEBRASKA

CITY           SKY/WX    TMP DP  RH WIND       PRES   REMARKS
LINCOLN        LGT SNOW  27  24  89 S12       30.33F FOG     WCI  17
OMAHA EPPLEY   CLOUDY    27  22  81 S12       30.35F WCI  17
BEATRICE       CLOUDY    29  22  75 S14       30.32F WCI  18
FALLS CITY     CLOUDY    30  23  75 S12       30.39F WCI  20
NEBRASKA CITY  CLOUDY    28  24  82 S14       30.35F WCI  17
PLATTSMOUTH    CLOUDY    28  22  80 S12       30.34F WCI  17
$$

NEZ044-045-051>053-067-051800-
OMAHA AREA

CITY           SKY/WX    TMP DP  RH WIND       PRES   REMARKS
OMAHA EPPLEY   CLOUDY    27  22  81 S12       30.35F WCI  17
BLAIR          LGT SNOW  27  23  86 S13       30.32S WCI  16
FREMONT        LGT SNOW  26  22  87 S12       30.32F WCI  15
MILLARD        LGT SNOW  28  23  82 SE6       30.35S WCI  22
OFFUTT AFB     FLURRIES  28  22  78 S9        30.35F WCI  19
PLATTSMOUTH    CLOUDY    28  22  80 S12       30.34F WCI  17
WAHOO          LGT SNOW  27  25  91 S8        30.32F WCI  18
$$




USA.gov is the U.S. government's official web portal to all federal, state and local government web resources and services.